Theta_e
312 313 312 313 313 312 312 313 314 315 315 316 317 318 319 319 316 308 304 310 316 322 321 308 305 303 305 302 301 299 297 292 290 291 292 296 294 299 301 298 301 303 302 306 308
314 313 313 313 313 312 312 313 314 314 315 316 317 318 318 319 306 304 308 318 320 321 308 304 301 302 301 300 301 299 296 291 293 294 293 295 296 297 298 298 299 300 304 306 308
314 313 312 312 312 313 311 312 313 314 314 316 317 317 318 316 303 302 313 318 319 314 310 304 303 302 298 300 298 296 294 294 294 295 296 296 296 299 298 296 299 298 299 304 307
315 314 313 312 312 313 312 312 313 314 314 315 316 317 319 308 297 304 314 316 315 311 305 302 301 299 297 295 296 293 295 296 297 297 296 296 298 297 298 299 302 301 301 305 306
316 315 313 312 312 313 311 312 313 313 314 315 316 318 310 301 300 307 311 312 309 307 302 301 299 298 296 296 297 295 295 297 298 297 297 297 297 297 298 301 302 299 303 304 304
316 315 314 312 312 312 312 312 312 313 313 315 316 316 305 297 305 306 307 310 308 306 303 302 300 301 296 295 296 297 297 297 297 297 297 296 297 297 298 301 298 298 300 302 303
317 315 314 313 312 312 312 311 312 312 313 314 315 307 302 299 305 307 308 308 308 306 303 304 303 301 300 295 298 297 294 295 296 296 296 297 293 295 299 300 296 296 299 301 302
317 315 314 313 312 312 312 311 312 312 313 313 314 304 297 305 307 306 308 308 310 309 305 305 306 301 299 299 296 294 294 291 294 295 296 295 291 295 298 298 296 295 297 299 301
317 315 314 313 313 312 312 311 312 312 312 312 304 302 296 307 302 304 307 305 307 307 305 303 305 299 298 296 293 292 290 288 290 294 294 294 292 296 298 298 295 295 296 297 299
317 315 315 314 313 312 311 311 310 307 302 300 300 298 298 297 301 303 306 306 304 303 301 299 298 297 295 294 290 288 287 286 287 292 293 293 294 296 297 298 295 295 295 296 297
317 316 315 314 312 311 308 299 296 295 298 295 295 296 296 300 303 302 303 303 303 301 295 293 293 292 293 290 287 288 289 290 288 292 291 292 292 295 297 298 297 295 295 295 296
317 316 315 314 312 310 302 294 296 297 292 295 296 296 298 300 297 299 304 299 297 294 292 293 290 290 291 291 290 289 288 288 288 289 290 288 288 293 295 297 297 295 294 294 295
317 315 314 314 311 306 298 296 301 299 293 291 295 295 297 299 295 297 301 298 295 292 290 290 290 291 291 290 289 288 288 286 286 289 291 288 291 290 295 296 297 297 294 293 293
317 315 314 312 303 299 295 299 302 300 295 291 290 294 296 298 293 299 300 298 294 290 292 291 292 291 289 288 289 287 290 289 288 288 287 287 289 289 291 293 295 297 293 293 293
316 314 313 310 299 294 298 301 301 303 286 292 289 297 296 293 294 295 298 297 292 290 290 288 289 290 288 288 289 288 291 290 289 288 286 285 285 290 289 290 293 295 293 293 292
316 314 313 304 300 299 300 301 302 290 282 285 289 290 290 291 292 294 295 297 295 291 292 290 292 291 289 289 290 291 290 289 288 287 286 283 283 287 289 290 293 294 293 292 292
316 313 310 303 296 300 299 300 287 284 288 284 285 289 288 288 289 291 291 290 290 287 287 287 288 290 290 288 290 289 289 285 286 285 285 282 282 289 289 292 295 293 293 293 292
314 312 308 303 302 299 298 290 281 287 287 286 286 287 286 288 288 288 290 289 289 288 286 285 282 287 290 288 288 288 287 286 283 281 282 281 281 288 289 292 295 295 293 292 292
314 308 301 299 301 299 291 281 284 286 289 285 286 284 284 286 287 287 289 289 291 288 289 284 282 288 288 290 289 286 284 286 281 275 282 285 287 289 290 292 294 295 293 293 293
307 299 298 300 300 297 286 283 286 289 287 287 287 286 283 284 285 286 286 290 289 289 289 287 282 285 287 290 290 287 288 284 284 282 281 283 282 288 286 289 293 294 295 295 294
300 293 296 300 299 290 283 285 284 288 290 287 287 284 285 284 286 285 286 287 288 287 289 288 287 282 286 285 286 285 285 284 285 283 281 281 287 292 291 292 292 295 297 297 295
297 285 297 299 284 285 284 284 287 286 287 287 288 286 285 284 284 285 285 286 290 289 286 288 286 282 283 286 287 286 285 286 286 280 281 280 287 289 290 290 292 295 296 298 297
290 284 293 294 280 282 281 284 285 284 285 286 286 287 285 284 284 286 286 287 289 289 288 287 286 280 283 284 284 284 286 285 284 284 280 284 288 287 288 289 292 292 293 296 297
287 281 283 285 287 286 282 283 283 285 286 287 285 286 284 282 282 283 283 285 288 288 291 291 284 287 285 286 286 282 284 285 286 285 283 284 288 287 288 289 292 292 293 294 296
285 284 287 280 283 286 285 284 283 282 285 287 283 286 285 281 282 282 283 284 287 289 287 288 285 281 281 281 283 284 284 284 283 286 287 289 287 292 292 291 293 294 294 293 293
285 284 285 286 287 285 285 282 283 283 284 283 284 285 286 284 286 283 283 284 286 287 286 284 281 278 277 278 279 281 284 285 285 285 284 284 285 292 292 291 291 291 292 292 294
293 293 290 287 286 284 285 286 284 287 285 289 287 285 285 285 286 285 287 287 289 287 284 283 278 283 284 273 278 282 282 283 285 287 288 284 291 289 288 289 291 292 291 291 293
Wind_Speed
7 9 8 10 10 11 11 11 11 11 11 12 11 11 12 13 4 1 5 5 8 14 9 2 3 4 4 5 5 1 2 4 4 5 6 4 4 3 2 5 3 2 9 13 18
8 8 8 10 10 11 11 12 12 11 12 11 11 11 11 10 1 7 1 11 11 9 2 3 4 3 5 4 4 4 2 3 3 4 5 5 2 1 3 2 3 9 10 14 14
8 8 9 9 10 11 12 11 13 12 11 11 11 11 11 5 2 2 9 14 10 2 1 3 5 3 5 3 5 5 4 7 4 4 4 4 3 0 5 2 5 16 18 17 15
9 7 9 9 10 11 12 12 12 13 12 11 11 10 10 2 1 2 13 12 8 3 2 4 3 4 4 5 3 8 4 3 6 5 3 3 3 2 3 3 8 12 15 14 15
10 8 8 10 9 10 12 12 12 13 13 11 11 11 2 2 2 5 13 8 2 1 2 4 4 5 6 8 9 11 7 5 6 5 2 2 3 2 4 4 9 10 10 12 13
9 8 6 7 7 9 11 12 13 12 13 11 10 11 1 3 3 6 8 4 6 2 3 1 5 10 10 4 3 7 10 9 3 3 1 3 3 4 1 5 8 10 11 12 12
11 10 7 6 7 9 11 12 13 12 13 11 8 3 2 3 2 5 5 4 4 2 6 4 6 3 7 10 6 10 9 5 3 1 1 2 4 6 3 5 7 10 11 12 12
13 11 9 8 8 9 11 13 14 14 12 8 7 3 3 0 2 3 4 3 6 6 9 8 10 11 4 12 4 4 2 4 4 2 3 3 1 4 3 7 7 10 11 13 14
13 12 10 9 8 8 11 13 15 13 9 6 2 2 3 1 1 2 4 2 2 3 6 5 5 6 4 6 5 2 3 3 4 2 2 4 2 3 2 6 6 8 11 11 14
14 12 11 10 7 7 11 13 11 8 1 1 1 2 2 3 2 1 2 1 1 3 2 4 4 4 3 4 3 7 5 3 2 1 3 4 7 2 5 6 5 8 9 10 12
16 14 13 11 7 5 7 2 2 3 0 1 2 2 3 1 2 3 3 2 2 3 2 3 3 4 4 1 2 6 4 4 2 1 4 4 9 8 5 5 4 6 8 10 12
18 16 14 12 7 3 1 4 3 2 2 1 2 1 1 2 4 2 2 3 3 4 2 3 4 5 7 2 5 5 5 2 2 2 3 4 12 8 5 4 3 5 7 9 12
20 18 17 13 7 1 4 6 1 2 2 3 2 3 3 3 2 6 2 3 2 4 1 1 7 8 3 4 5 3 1 4 1 0 2 8 4 4 2 5 5 5 4 4 7
22 20 18 18 5 4 5 4 4 1 3 4 5 3 3 4 2 1 1 2 3 4 6 6 6 5 5 2 2 3 2 5 3 3 3 2 2 4 3 6 7 5 4 2 5
22 23 24 18 7 7 2 6 5 0 4 5 4 2 2 4 5 2 2 2 6 5 4 4 9 7 3 2 1 4 4 3 2 1 3 3 4 2 1 3 5 6 5 2 3
26 27 26 6 1 2 6 5 2 3 12 4 4 6 7 2 3 4 2 5 4 5 10 4 1 1 3 4 2 10 5 3 1 1 2 3 3 4 5 4 4 4 5 3 3
27 29 22 10 5 7 6 3 3 8 2 5 5 7 5 6 5 5 7 8 7 7 4 3 2 2 2 7 4 2 4 2 2 2 2 2 4 5 5 5 2 5 4 4 4
26 30 16 7 5 10 2 4 8 3 6 2 3 8 8 7 3 6 9 10 7 2 7 9 7 10 5 2 3 7 3 3 4 3 1 2 6 1 1 1 3 0 2 3 4
28 12 8 5 7 4 9 9 12 7 8 13 4 5 5 4 4 7 10 8 11 13 6 7 3 2 1 1 2 7 7 2 6 1 2 2 5 6 4 7 6 9 9 10 10
8 6 4 14 11 6 10 14 5 4 9 5 9 6 10 10 9 10 13 7 7 11 3 8 7 0 2 2 2 3 3 3 1 4 5 3 4 4 8 13 12 12 12 9 6
7 6 4 10 10 7 7 8 6 6 6 9 8 5 6 9 7 9 10 1 5 10 3 7 4 4 3 9 10 6 4 2 1 2 2 1 3 4 8 12 15 14 13 12 10
6 5 6 14 8 5 7 8 5 6 3 3 4 3 8 9 11 9 11 3 10 14 11 5 7 6 3 1 2 2 3 7 4 6 0 1 4 2 4 4 4 8 10 10 8
6 6 4 10 9 10 2 4 4 6 7 8 6 3 2 9 4 7 7 2 7 9 11 11 3 7 2 2 1 7 7 4 2 1 7 4 2 0 4 6 6 6 6 8 10
5 7 4 3 0 13 9 8 9 3 5 5 7 6 4 2 2 6 6 1 3 3 2 2 4 5 8 4 7 9 11 15 7 4 7 7 2 7 10 11 10 10 8 8 10
3 4 7 16 15 16 16 13 16 8 3 4 2 6 7 5 4 4 2 3 1 3 1 3 5 3 2 2 1 4 12 20 17 6 9 3 11 9 14 16 14 12 10 9 11
6 5 3 8 17 13 18 16 25 12 15 8 5 12 6 6 4 9 8 5 6 4 6 2 3 2 1 2 2 3 7 16 14 8 12 5 9 11 1 5 11 12 12 13 13
2 3 4 16 18 15 17 23 28 22 6 10 14 9 8 5 2 3 1 4 3 10 8 7 8 4 4 2 0 6 14 16 12 13 12 12 9 7 7 10 13 14 15 14 15
Wind_Direction
288 299 313 323 334 337 340 342 344 344 346 344 346 345 345 345 323 65 49 324 311 316 312 277 73 73 70 74 33 298 126 126 134 162 119 149 192 155 311 275 289 265 299 309 317
272 288 306 314 326 330 334 335 337 341 341 343 343 340 343 342 107 65 16 325 320 313 265 164 115 86 71 60 34 21 71 95 75 95 135 145 201 221 271 268 310 294 317 320 321
257 275 289 302 314 323 327 332 331 335 338 339 340 334 334 319 200 46 340 335 327 284 136 93 94 62 76 43 24 41 87 135 129 128 144 138 184 189 317 255 333 321 322 321 328
247 259 281 293 301 317 320 325 327 328 333 334 335 329 323 227 217 351 338 337 339 140 167 116 80 77 71 83 64 106 98 144 148 149 157 175 122 211 255 331 324 317 310 314 335
222 229 265 284 291 307 314 317 322 325 328 333 332 329 270 125 85 338 331 339 43 77 60 128 107 122 107 110 104 94 134 121 126 140 127 148 191 263 249 311 324 327 322 332 335
222 228 230 265 282 301 307 312 315 321 321 329 331 322 239 192 341 328 332 347 36 87 78 41 122 114 90 69 39 118 127 118 141 143 147 237 201 262 171 330 327 339 336 337 337
212 212 235 226 273 294 301 305 308 314 316 319 330 321 67 89 331 338 5 11 5 54 94 51 111 70 125 108 106 119 107 119 87 20 228 267 220 236 321 317 336 342 339 341 349
205 202 208 225 248 279 297 301 305 306 305 305 321 274 93 259 336 16 342 54 43 50 87 92 88 88 56 121 92 107 147 181 123 27 147 254 220 219 304 311 356 349 342 344 354
207 197 203 213 230 270 292 299 299 297 293 298 241 281 138 151 138 2 355 98 85 68 70 91 68 76 137 147 119 76 176 214 154 80 263 240 267 169 276 298 353 344 340 349 348
210 195 194 205 219 268 295 299 295 299 289 218 120 218 189 163 101 14 16 16 116 134 126 54 75 114 134 221 188 167 180 190 198 159 243 243 261 259 257 285 343 340 337 345 349
202 198 190 190 209 269 324 311 219 232 154 251 105 79 124 132 166 67 14 177 138 72 148 31 147 181 166 334 76 104 114 116 188 57 295 277 289 283 263 275 305 337 340 347 347
197 194 182 172 187 238 342 239 243 354 174 174 122 82 100 258 122 103 328 201 192 144 160 161 117 120 110 121 111 99 128 111 289 283 304 339 294 274 250 261 278 313 335 344 341
189 188 168 155 141 181 238 247 143 321 258 181 181 181 172 207 138 144 175 134 118 130 185 184 115 140 133 148 129 67 168 160 65 297 165 308 260 273 186 243 242 232 276 328 345
188 176 159 132 123 159 231 209 169 198 40 190 201 182 149 163 169 86 64 124 90 134 116 85 144 144 142 166 264 154 103 116 129 219 254 312 284 233 222 276 234 216 201 319 344
185 167 163 144 132 161 279 144 126 195 243 110 148 91 143 184 117 108 41 110 146 133 188 123 164 152 168 81 195 105 133 93 101 115 289 173 262 137 335 247 198 190 173 197 2
182 172 162 130 198 215 119 134 163 58 239 152 126 165 153 140 116 126 121 64 110 93 57 88 41 164 83 79 73 137 118 91 104 289 259 75 313 164 199 192 179 180 174 159 63
183 168 163 142 195 143 151 138 85 218 39 184 175 176 169 147 142 178 167 161 158 127 161 129 155 130 165 116 109 216 185 132 215 212 254 80 258 274 211 197 177 171 158 125 89
178 165 169 149 166 128 162 80 204 204 179 120 127 135 179 151 177 157 159 185 221 204 137 163 196 184 167 243 187 184 268 238 218 206 89 114 234 160 207 156 196 187 90 142 141
175 171 161 160 134 122 136 188 211 169 156 148 133 143 194 199 168 169 202 206 202 202 153 155 109 75 67 134 250 153 216 41 105 70 274 192 249 228 213 229 205 209 204 193 170
169 139 156 132 133 156 147 211 221 199 125 166 185 187 173 174 172 193 176 193 194 191 264 170 113 303 114 181 87 263 128 148 233 168 237 200 263 259 206 223 207 215 220 212 186
138 159 108 131 118 165 192 206 194 225 145 165 179 140 187 174 184 197 198 206 180 162 176 148 117 147 170 210 178 156 192 218 317 281 225 232 225 200 200 198 202 205 208 201 198
159 136 163 137 149 211 183 191 178 160 196 129 121 104 176 164 178 210 213 269 162 152 170 193 110 145 186 42 350 306 212 200 227 185 220 324 266 145 198 199 235 209 206 204 195
149 114 1 167 158 192 122 184 187 152 183 171 143 174 159 173 164 206 202 17 168 172 157 182 162 119 118 191 214 222 193 198 95 111 190 177 190 153 208 199 202 239 225 211 199
150 140 143 235 182 182 164 186 188 219 177 164 121 119 132 158 75 188 177 145 212 212 35 157 144 177 190 145 135 193 187 189 198 182 157 230 262 198 218 215 207 212 214 216 208
168 194 189 177 214 193 170 172 180 169 253 190 78 169 158 140 135 200 157 124 116 216 162 181 173 116 75 50 189 197 183 185 198 217 199 189 212 215 204 207 203 202 193 198 203
165 158 233 184 168 175 180 188 193 180 166 202 158 164 149 155 174 179 154 191 184 165 181 182 162 136 67 348 5 246 198 201 217 226 263 259 268 230 154 173 196 198 192 202 205
169 152 223 160 173 172 194 184 201 193 206 218 161 131 150 130 100 20 114 89 149 164 168 156 143 162 210 352 236 270 210 189 206 211 212 218 229 160 188 210 203 197 197 212 213